Home   Weather   Rothesay   Past weeks
Flag for Canada

Past Weather in Rothesay, New Brunswick, Canada — Yesterday and Last 2 Weeks

Now
70 °F

Mostly cloudy.


Feels Like: 70 °F
Forecast: N/A
Wind: 6 mph from South

Location: Saint John

Current Time: Jul 22, 2019 at 8:37:56 pm

Latest Report: Jul 22, 2019 at 7:00 pm


Visibility: 15 mi

Pressure: 29.86 "Hg

Humidity: 78%

Dew Point: 63 °F

Location of RothesayLocation

Past Weather in Rothesay — Graph

°F

Rothesay Temperature Yesterday

Maximum temperature yesterday: 77 °F (at 10:00 am)
Minimum temperature yesterday: 61 °F (at 11:00 pm)
Average temperature yesterday: 69 °F

High & Low Weather Summary for the Past Weeks

 TemperatureHumidityPressure
High91 °F (Jul 20, 6:00 pm)100% (Jul 8, 4:00 am)30.12 "Hg (Jul 8, 4:00 am)
Low45 °F (Jul 8, 5:00 am)32% (Jul 9, 2:00 pm)29.57 "Hg (Jul 21, 1:00 pm)
Average65 °F81%29.85 "Hg
* Reported Jul 7 7:00 pm — Jul 22 7:00 pm, Rothesay. Weather by CustomWeather, © 2019

Note: Actual official high and low records may vary slightly from our data, if they occured in-between our weather recording intervals... More about our weather records

Advertising

Rothesay Weather History for the Previous 24 Hours

Scroll right to see more
 ConditionsComfort  
Time TempWeatherWind HumidityBarometerVisibility
7:00 pm
Mon, Jul 22
70 °FMostly cloudy.6 mph78%29.86 "Hg15 mi
6:00 pm73 °FMore clouds than sun.5 mph69%29.85 "Hg15 mi
5:00 pm72 °FMostly cloudy.5 mph69%29.86 "Hg15 mi
4:00 pm75 °FCloudy.6 mph65%29.86 "Hg15 mi
3:00 pm75 °FMostly cloudy.14 mph54%29.85 "Hg15 mi
2:00 pm75 °FCloudy.13 mph61%29.86 "Hg15 mi
1:00 pm75 °FPartly sunny.7 mph65%29.85 "Hg15 mi
12:00 pm73 °FPartly sunny.5 mph65%29.85 "Hg15 mi
11:00 am73 °FPartly sunny.5 mph61%29.85 "Hg15 mi
10:00 am70 °FPartly sunny.2 mph73%29.84 "Hg15 mi
9:00 am70 °FBroken clouds.5 mph83%29.84 "Hg15 mi
8:00 am66 °FPassing clouds.3 mph94%29.83 "Hg15 mi
7:00 am61 °FFog.No wind100%29.82 "Hg15 mi
6:00 am55 °FFog.No wind100%29.81 "Hg10 mi
5:00 am57 °FFog.2 mph100%29.79 "Hg10 mi
4:00 am55 °FFog.No wind100%29.77 "Hg10 mi
3:00 am55 °FFog.3 mph100%29.76 "Hg3 mi
2:31 am57 °FFog.No wind100%29.76 "Hg1 mi
2:00 am57 °FFog.No wind100%29.74 "Hg1 mi
1:47 am57 °FFog.No wind100%29.74 "Hg1 mi
1:34 am57 °FFog.No wind100%29.74 "Hg1 mi
1:00 am57 °FFog.2 mph100%29.75 "Hg1 mi
12:54 am57 °FFog.No wind100%29.75 "Hg1 mi
12:00 am59 °FFog.3 mph100%29.75 "Hg1 mi
11:53 pm
Sun, Jul 21
61 °FFog.5 mph100%29.75 "Hg1 mi
11:00 pm61 °FFog.2 mph100%29.74 "Hg15 mi
10:35 pm63 °FFog.2 mph100%29.74 "Hg15 mi
10:00 pm64 °FPassing clouds.3 mph100%29.72 "Hg15 mi
9:00 pm64 °FScattered clouds.9 mph100%29.70 "Hg15 mi
8:00 pm66 °FPartly sunny.14 mph100%29.67 "Hg12 mi
Weather by CustomWeather, © 2019

See weather overview